Location: Home
(42.5358°N, 72.7383°W)
Time: 01:45:57
(UTC-05:00)

Vanguard 1 Rocket - Pass Details

Date: 05 December 2021
Orbit: 651 x 4224 km, 34.3° (Epoch: 23 January)

Event Time Altitude Azimuth Distance (km) Brightness Sun altitude
Exits shadow 04:35:18 34° 250° (WSW) 3,489 9.8 -26.9°
Maximum altitude 04:43:22 65° 183° (S) 3,265 10.0 -25.4°
Drops below altitude 10° 05:06:59 10° 109° (ESE) 7,346 13.2 -21.1°
Sets 05:13:08 0° 107° (ESE) 8,466 13.9 -20.0°
